TOPSWRTT 000
TTAA00 KICT 180503

Wichita AWIPS Roundup
National Weather Service Wichita KS
1200 AM CDT FRI APR 18 2014

....Central Kansas....
  
CITY           SKY/WX    TMP DP  RH WIND       PRES   REMARKS
RUSSELL        CLEAR     39  29  67 S8        30.23R WCI  33          
SALINA         CLEAR     39  29  67 S6        30.27S WCI  35          
GREAT BEND     CLEAR     41  30  65 S8        30.25R WCI  36          
ELLSWORTH      CLEAR     43  34  70 S7        30.25S WCI  39          
MCPHERSON      CLEAR     37  32  81 S6        30.27S WCI  33          
HAYS           CLEAR     39  28  65 S6        30.23S WCI  35          

....South Central Kansas....
  
CITY           SKY/WX    TMP DP  RH WIND       PRES   REMARKS
HUTCHINSON     CLEAR     38  32  79 SE5       30.27S WCI  34          
NEWTON         CLEAR     37  28  70 S6        30.30R WCI  33          
KINGMAN        CLEAR     39  36  87 S3        30.27S                  
WICHITA (ICT)  CLEAR     38  33  82 CALM      30.28R HAZE             
JABARA ARPT    CLEAR     39  34  82 CALM      30.28R HAZE             
MCCONNELL AFB  CLEAR     42  38  87 CALM      30.28S                  
HARPER           N/A     34  30  86 CALM      30.29S                  
WELLINGTON     CLEAR     36  30  80 CALM      30.28F FOG              
WINFIELD       CLEAR     36  32  85 CALM      30.29R FOG              
 
....Southeast Kansas....
  
CITY           SKY/WX    TMP DP  RH WIND       PRES   REMARKS
EUREKA         CLEAR     39  36  87 CALM      30.28S                  
CHANUTE        CLEAR     38  35  89 CALM      30.29R FOG              
PARSONS        CLEAR     38  35  89 NE3       30.29R FOG              
COFFEYVILLE    CLEAR     41  36  82 N6        30.29R WCI  37          
INDEPENDENCE   CLEAR     37  34  87 N6        30.29R WCI  33          
FORT SCOTT     CLEAR     41  37  87 CALM      30.27S                  
PITTSBURG      PTCLDY    42  40  92 E3        30.27R                  

....Western Kansas....
  
CITY           SKY/WX    TMP DP  RH WIND       PRES   REMARKS
GOODLAND       CLEAR     40  37  89 S20       30.14F WCI  30          
HILL CITY      CLEAR     43  34  70 S7        30.21S WCI  39          
LIBERAL        CLEAR     41  36  81 SE8       30.25S WCI  36          
GARDEN CITY    PTCLDY    40  37  89 S7        30.22S FOG     WCI  35  
DODGE CITY     PTCLDY    40  37  89 S8        30.24S FOG     WCI  34  
PRATT          CLEAR     36  34  93 S6        30.27S FOG     WCI  31  
MEDICINE LODGE   N/A     40  35  83 CALM      30.27F                  

....Northeast Kansas....
  
CITY           SKY/WX    TMP DP  RH WIND       PRES   REMARKS
CONCORDIA      PTCLDY    44  30  57 S12       30.25R WCI  38          
TOPEKA         CLEAR     40  33  76 CALM      30.29S HAZE             
MANHATTAN      CLOUDY    39  31  72 CALM      30.28R HAZE             
LAWRENCE       CLEAR     34  31  88 CALM      30.29S                  
OLATHE         CLEAR     38  33  82 CALM      30.27S                  
EMPORIA        CLEAR     39  32  76 SE3       30.27S HAZE             

....Oklahoma....
  
CITY           SKY/WX    TMP DP  RH WIND       PRES   REMARKS
GAGE           CLOUDY    45  36  70 SE5       30.25F                  
PONCA CITY     CLEAR     38  32  79 NE3       30.28S                  
BARTLESVILLE   CLEAR     40  35  83 CALM      30.29S HAZE             
TULSA          CLEAR     42  40  92 NW7       30.26R FOG     WCI  38  
OKLAHOMA CITY  CLOUDY    52  41  66 NE7       30.25S                  

Note: "fair" indicates few or no clouds below 12,000 feet with no
significant weather and/or obstructions to visibility.
  

USA.gov is the U.S. government's official web portal to all federal, state and local government web resources and services.